Time,TemperatureF,DewpointF,PressureIn,WindDirection,WindDirectionDegrees,WindSpeedMPH,WindSpeedGustMPH,Humidity,HourlyPrecipIn,Conditions,Clouds,dailyrainin,SoftwareType,DateUTC
2013-05-26 00:03:00,54.0,41.0,30.21,ENE,76,0.0,2.0,61,0.00,,,0.00,,2013-05-26 04:03:00,
2013-05-26 00:12:00,54.0,41.0,30.21,ENE,76,0.0,2.0,61,0.00,,,0.00,,2013-05-26 04:12:00,
2013-05-26 00:23:00,54.0,42.0,30.21,WSW,240,1.0,3.0,63,0.00,,,0.00,,2013-05-26 04:23:00,
2013-05-26 00:33:00,54.0,42.0,30.21,WSW,240,0.0,1.0,63,0.00,,,0.00,,2013-05-26 04:33:00,
2013-05-26 00:42:00,54.0,42.0,30.21,WSW,240,0.0,1.0,63,0.00,,,0.00,,2013-05-26 04:42:00,
2013-05-26 00:52:00,54.0,42.0,30.21,WSW,240,0.0,0.0,63,0.00,,,0.00,,2013-05-26 04:52:00,
2013-05-26 01:02:00,54.0,42.0,30.21,WSW,240,0.0,1.0,64,0.00,,,0.00,,2013-05-26 05:02:00,
2013-05-26 01:12:00,54.0,42.0,30.21,WSW,240,0.0,1.0,64,0.00,,,0.00,,2013-05-26 05:12:00,
2013-05-26 01:22:00,54.0,42.0,30.21,WSW,240,0.0,0.0,64,0.00,,,0.00,,2013-05-26 05:22:00,
2013-05-26 01:32:00,54.0,42.0,30.20,WSW,240,0.0,0.0,64,0.00,,,0.00,,2013-05-26 05:32:00,
2013-05-26 01:42:00,54.0,42.0,30.20,WSW,240,0.0,0.0,64,0.00,,,0.00,,2013-05-26 05:42:00,
2013-05-26 01:52:00,54.0,42.0,30.21,WSW,240,0.0,0.0,64,0.00,,,0.00,,2013-05-26 05:52:00,
2013-05-26 02:01:00,54.0,43.0,30.20,WSW,240,0.0,1.0,67,0.00,,,0.00,,2013-05-26 06:01:00,
2013-05-26 02:12:00,54.0,43.0,30.20,WSW,240,0.0,1.0,67,0.00,,,0.00,,2013-05-26 06:12:00,
2013-05-26 02:22:00,54.0,43.0,30.20,WSW,240,1.0,2.0,67,0.00,,,0.00,,2013-05-26 06:22:00,
2013-05-26 02:32:00,54.0,44.0,30.20,WSW,240,0.0,0.0,68,0.00,,,0.00,,2013-05-26 06:32:00,
2013-05-26 02:42:00,54.0,44.0,30.20,WSW,240,0.0,0.0,68,0.00,,,0.00,,2013-05-26 06:42:00,
2013-05-26 02:52:00,54.0,44.0,30.19,WSW,240,0.0,0.0,68,0.00,,,0.00,,2013-05-26 06:52:00,
2013-05-26 03:02:00,53.0,43.0,30.19,WSW,240,0.0,1.0,68,0.00,,,0.00,,2013-05-26 07:02:00,
2013-05-26 03:11:00,53.0,43.0,30.19,WSW,240,0.0,1.0,68,0.00,,,0.00,,2013-05-26 07:11:00,
2013-05-26 03:22:00,53.0,43.0,30.19,WSW,240,0.0,0.0,70,0.00,,,0.00,,2013-05-26 07:22:00,
2013-05-26 03:32:00,53.0,44.0,30.19,WSW,240,0.0,1.0,71,0.00,,,0.00,,2013-05-26 07:32:00,
2013-05-26 03:42:00,53.0,44.0,30.19,WSW,240,0.0,1.0,71,0.00,,,0.00,,2013-05-26 07:42:00,
2013-05-26 03:52:00,53.0,44.0,30.19,WSW,240,0.0,0.0,71,0.00,,,0.00,,2013-05-26 07:52:00,
2013-05-26 04:01:00,53.0,43.0,30.17,WSW,240,0.0,0.0,70,0.00,,,0.00,,2013-05-26 08:01:00,
2013-05-26 04:12:00,53.0,43.0,30.17,WSW,240,0.0,0.0,70,0.00,,,0.00,,2013-05-26 08:12:00,
2013-05-26 04:21:00,53.0,44.0,30.18,WSW,240,0.0,0.0,71,0.00,,,0.00,,2013-05-26 08:21:00,
2013-05-26 04:32:00,53.0,44.0,30.19,WSW,240,0.0,0.0,72,0.00,,,0.00,,2013-05-26 08:32:00,
2013-05-26 04:42:00,53.0,44.0,30.19,WSW,240,0.0,0.0,72,0.00,,,0.00,,2013-05-26 08:42:00,
2013-05-26 04:53:00,53.0,44.0,30.19,WSW,240,0.0,0.0,71,0.00,,,0.00,,2013-05-26 08:53:00,
2013-05-26 05:01:00,53.0,45.0,30.19,WSW,240,0.0,1.0,73,0.00,,,0.00,,2013-05-26 09:01:00,
2013-05-26 05:11:00,53.0,44.0,30.20,WSW,240,0.0,0.0,72,0.00,,,0.00,,2013-05-26 09:11:00,
2013-05-26 05:21:00,53.0,44.0,30.20,WSW,240,0.0,0.0,72,0.00,,,0.00,,2013-05-26 09:21:00,
2013-05-26 05:33:00,53.0,45.0,30.20,WSW,240,0.0,1.0,73,0.00,,,0.00,,2013-05-26 09:33:00,
2013-05-26 05:42:00,53.0,45.0,30.20,WSW,240,0.0,1.0,73,0.00,,,0.00,,2013-05-26 09:42:00,
2013-05-26 05:52:00,53.0,45.0,30.21,WSW,240,0.0,1.0,74,0.00,,,0.00,,2013-05-26 09:52:00,
2013-05-26 06:03:00,52.0,44.0,30.21,WSW,240,0.0,2.0,74,0.00,,,0.00,,2013-05-26 10:03:00,
2013-05-26 06:12:00,52.0,44.0,30.21,WSW,240,0.0,2.0,74,0.00,,,0.00,,2013-05-26 10:12:00,
2013-05-26 06:23:00,52.0,44.0,30.20,WSW,240,0.0,2.0,75,0.00,,,0.00,,2013-05-26 10:23:00,
2013-05-26 06:33:00,52.0,45.0,30.21,WSW,240,0.0,0.0,76,0.00,,,0.00,,2013-05-26 10:33:00,
2013-05-26 06:42:00,52.0,45.0,30.21,WSW,240,0.0,0.0,76,0.00,,,0.00,,2013-05-26 10:42:00,
2013-05-26 06:52:00,52.0,45.0,30.22,WSW,240,0.0,1.0,78,0.00,,,0.00,,2013-05-26 10:52:00,
2013-05-26 07:03:00,51.0,45.0,30.23,ESE,113,0.0,2.0,79,0.00,,,0.00,,2013-05-26 11:03:00,
2013-05-26 07:11:00,51.0,45.0,30.23,ESE,113,0.0,2.0,79,0.00,,,0.00,,2013-05-26 11:11:00,
2013-05-26 07:22:00,51.0,45.0,30.24,ESE,113,0.0,0.0,79,0.00,,,0.00,,2013-05-26 11:22:00,
2013-05-26 07:32:00,51.0,45.0,30.24,ESE,113,0.0,0.0,80,0.00,,,0.00,,2013-05-26 11:32:00,
2013-05-26 07:42:00,51.0,45.0,30.24,ESE,113,0.0,0.0,80,0.00,,,0.00,,2013-05-26 11:42:00,
2013-05-26 07:52:00,52.0,46.0,30.24,ESE,113,0.0,0.0,80,0.00,,,0.00,,2013-05-26 11:52:00,
2013-05-26 08:02:00,52.0,46.0,30.24,ESE,113,0.0,0.0,81,0.00,,,0.00,,2013-05-26 12:02:00,
2013-05-26 08:12:00,52.0,46.0,30.24,ESE,113,0.0,0.0,81,0.00,,,0.00,,2013-05-26 12:12:00,
2013-05-26 08:22:00,53.0,47.0,30.24,ESE,113,0.0,0.0,80,0.00,,,0.00,,2013-05-26 12:22:00,
2013-05-26 08:32:00,53.0,47.0,30.25,ESE,113,0.0,0.0,79,0.00,,,0.00,,2013-05-26 12:32:00,
2013-05-26 08:42:00,53.0,47.0,30.25,ESE,113,0.0,0.0,79,0.00,,,0.00,,2013-05-26 12:42:00,
2013-05-26 08:52:00,53.0,46.0,30.25,ESE,113,0.0,0.0,76,0.00,,,0.00,,2013-05-26 12:52:00,
2013-05-26 09:02:00,54.0,46.0,30.25,ESE,113,0.0,0.0,75,0.00,,,0.00,,2013-05-26 13:02:00,
2013-05-26 09:11:00,54.0,46.0,30.25,ESE,113,0.0,0.0,75,0.00,,,0.00,,2013-05-26 13:11:00,
2013-05-26 09:21:00,54.0,46.0,30.25,ESE,113,0.0,1.0,75,0.00,,,0.00,,2013-05-26 13:21:00,
2013-05-26 09:32:00,53.0,47.0,30.26,ESE,113,0.0,0.0,79,0.01,,,0.01,,2013-05-26 13:32:00,
2013-05-26 09:42:00,53.0,47.0,30.26,ESE,113,0.0,0.0,79,0.01,,,0.01,,2013-05-26 13:42:00,
2013-05-26 09:52:00,53.0,47.0,30.26,ESE,113,0.0,1.0,79,0.01,,,0.01,,2013-05-26 13:52:00,
2013-05-26 10:02:00,53.0,47.0,30.26,ESE,113,0.0,1.0,79,0.01,,,0.01,,2013-05-26 14:02:00,
2013-05-26 10:11:00,53.0,47.0,30.26,ESE,113,0.0,1.0,79,0.01,,,0.01,,2013-05-26 14:11:00,
2013-05-26 10:21:00,54.0,47.0,30.26,ESE,113,0.0,1.0,76,0.01,,,0.01,,2013-05-26 14:21:00,
2013-05-26 10:32:00,54.0,46.0,30.26,ESE,113,0.0,0.0,75,0.00,,,0.01,,2013-05-26 14:32:00,
2013-05-26 10:42:00,54.0,45.0,30.26,West,259,0.0,3.0,72,0.00,,,0.01,,2013-05-26 14:42:00,
2013-05-26 10:52:00,54.0,45.0,30.26,West,259,0.0,3.0,72,0.00,,,0.01,,2013-05-26 14:52:00,
2013-05-26 11:02:00,56.0,46.0,30.25,WSW,240,0.0,5.0,68,0.00,,,0.01,,2013-05-26 15:02:00,
2013-05-26 11:12:00,56.0,46.0,30.25,WSW,240,0.0,5.0,68,0.00,,,0.01,,2013-05-26 15:12:00,
2013-05-26 11:22:00,57.0,45.0,30.25,WSW,241,0.0,4.0,65,0.00,,,0.01,,2013-05-26 15:22:00,
2013-05-26 11:33:00,59.0,46.0,30.26,WSW,253,2.0,5.0,62,0.00,,,0.01,,2013-05-26 15:33:00,
2013-05-26 11:43:00,59.0,46.0,30.26,WSW,253,2.0,5.0,62,0.00,,,0.01,,2013-05-26 15:43:00,
2013-05-26 11:53:00,60.0,46.0,30.25,WSW,249,1.0,3.0,60,0.00,,,0.01,,2013-05-26 15:53:00,
2013-05-26 12:03:00,61.0,45.0,30.25,SW,214,1.0,4.0,56,0.00,,,0.01,,2013-05-26 16:03:00,
2013-05-26 12:12:00,62.0,45.0,30.25,SW,228,1.0,4.0,54,0.00,,,0.01,,2013-05-26 16:12:00,
2013-05-26 12:23:00,62.0,45.0,30.25,SW,228,1.0,4.0,54,0.00,,,0.01,,2013-05-26 16:23:00,
2013-05-26 12:33:00,64.0,46.0,30.24,SSW,200,1.0,4.0,52,0.00,,,0.01,,2013-05-26 16:33:00,
2013-05-26 12:42:00,65.0,46.0,30.25,WSW,240,0.0,6.0,50,0.00,,,0.01,,2013-05-26 16:42:00,
2013-05-26 12:52:00,65.0,46.0,30.25,WSW,240,0.0,6.0,50,0.00,,,0.01,,2013-05-26 16:52:00,
2013-05-26 13:02:00,66.0,43.0,30.24,NW,312,2.0,5.0,43,0.00,,,0.01,,2013-05-26 17:02:00,
2013-05-26 13:11:00,66.0,43.0,30.24,NW,312,2.0,5.0,43,0.00,,,0.01,,2013-05-26 17:11:00,
2013-05-26 13:22:00,67.0,41.0,30.24,NW,308,2.0,7.0,39,0.00,,,0.01,,2013-05-26 17:22:00,
2013-05-26 13:32:00,68.0,41.0,30.23,WNW,295,1.0,8.0,38,0.00,,,0.01,,2013-05-26 17:32:00,
2013-05-26 13:42:00,68.0,41.0,30.23,WNW,295,1.0,8.0,38,0.00,,,0.01,,2013-05-26 17:42:00,
2013-05-26 13:52:00,68.0,40.0,30.22,WNW,301,4.0,9.0,36,0.00,,,0.01,,2013-05-26 17:52:00,
2013-05-26 14:01:00,69.0,42.0,30.22,SSW,206,1.0,4.0,37,0.00,,,0.01,,2013-05-26 18:01:00,
2013-05-26 14:12:00,69.0,42.0,30.22,SSW,206,1.0,4.0,37,0.00,,,0.01,,2013-05-26 18:12:00,
2013-05-26 14:21:00,69.0,42.0,30.23,WNW,292,2.0,7.0,37,0.00,,,0.01,,2013-05-26 18:21:00,
2013-05-26 14:32:00,69.0,42.0,30.22,West,278,2.0,7.0,38,0.00,,,0.01,,2013-05-26 18:32:00,
2013-05-26 14:42:00,69.0,42.0,30.22,West,278,2.0,7.0,38,0.00,,,0.01,,2013-05-26 18:42:00,
2013-05-26 14:52:00,69.0,42.0,30.21,SE,124,1.0,4.0,38,0.00,,,0.01,,2013-05-26 18:52:00,
2013-05-26 15:01:00,70.0,43.0,30.20,SSW,211,1.0,8.0,37,0.00,,,0.01,,2013-05-26 19:01:00,
2013-05-26 15:11:00,70.0,43.0,30.20,SSW,211,1.0,8.0,37,0.00,,,0.01,,2013-05-26 19:11:00,
2013-05-26 15:22:00,71.0,44.0,30.20,SE,146,0.0,7.0,38,0.00,,,0.01,,2013-05-26 19:22:00,
2013-05-26 15:32:00,71.0,45.0,30.20,SW,223,2.0,5.0,40,0.00,,,0.01,,2013-05-26 19:32:00,
2013-05-26 15:42:00,71.0,45.0,30.20,SW,223,2.0,5.0,40,0.00,,,0.01,,2013-05-26 19:42:00,
2013-05-26 15:52:00,71.0,42.0,30.20,SSW,204,5.0,9.0,35,0.00,,,0.01,,2013-05-26 19:52:00,
2013-05-26 16:02:00,71.0,43.0,30.20,West,260,1.0,7.0,37,0.00,,,0.01,,2013-05-26 20:02:00,
2013-05-26 16:11:00,71.0,43.0,30.20,West,260,1.0,7.0,37,0.00,,,0.01,,2013-05-26 20:11:00,
2013-05-26 16:22:00,70.0,45.0,30.20,SW,227,6.0,8.0,41,0.00,,,0.01,,2013-05-26 20:22:00,
2013-05-26 16:32:00,70.0,47.0,30.19,SSW,192,2.0,5.0,44,0.00,,,0.01,,2013-05-26 20:32:00,
2013-05-26 16:42:00,70.0,47.0,30.19,SSW,192,2.0,5.0,44,0.00,,,0.01,,2013-05-26 20:42:00,
2013-05-26 16:52:00,71.0,44.0,30.19,NE,54,3.0,7.0,38,0.00,,,0.01,,2013-05-26 20:52:00,
2013-05-26 17:02:00,71.0,45.0,30.20,North,0,2.0,5.0,39,0.00,,,0.01,,2013-05-26 21:02:00,
2013-05-26 17:11:00,71.0,45.0,30.20,North,0,2.0,5.0,39,0.00,,,0.01,,2013-05-26 21:11:00,
2013-05-26 17:22:00,70.0,43.0,30.19,NNE,31,3.0,6.0,38,0.00,,,0.01,,2013-05-26 21:22:00,
2013-05-26 17:33:00,71.0,45.0,30.19,SW,230,0.0,7.0,39,0.00,,,0.01,,2013-05-26 21:33:00,
2013-05-26 17:43:00,71.0,45.0,30.19,SW,230,0.0,7.0,39,0.00,,,0.01,,2013-05-26 21:43:00,
2013-05-26 17:53:00,71.0,44.0,30.19,SSE,156,1.0,6.0,38,0.00,,,0.01,,2013-05-26 21:53:00,
2013-05-26 18:03:00,70.0,43.0,30.19,North,358,1.0,5.0,38,0.00,,,0.01,,2013-05-26 22:03:00,
2013-05-26 18:12:00,70.0,43.0,30.19,North,358,1.0,5.0,38,0.00,,,0.01,,2013-05-26 22:12:00,
2013-05-26 18:23:00,70.0,45.0,30.20,NW,322,1.0,6.0,40,0.00,,,0.01,,2013-05-26 22:23:00,
2013-05-26 18:33:00,70.0,46.0,30.19,NW,318,1.0,6.0,42,0.00,,,0.01,,2013-05-26 22:33:00,
2013-05-26 18:42:00,70.0,46.0,30.19,NNE,17,2.0,6.0,42,0.00,,,0.01,,2013-05-26 22:42:00,
2013-05-26 18:53:00,70.0,46.0,30.19,NNE,17,2.0,6.0,42,0.00,,,0.01,,2013-05-26 22:53:00,
2013-05-26 19:02:00,69.0,44.0,30.19,NNE,17,0.0,9.0,41,0.00,,,0.01,,2013-05-26 23:02:00,
2013-05-26 19:12:00,69.0,44.0,30.19,NNE,17,0.0,9.0,41,0.00,,,0.01,,2013-05-26 23:12:00,
2013-05-26 19:22:00,68.0,46.0,30.19,NNE,16,0.0,3.0,45,0.00,,,0.01,,2013-05-26 23:22:00,
2013-05-26 19:32:00,68.0,45.0,30.20,NNE,16,1.0,4.0,44,0.00,,,0.01,,2013-05-26 23:32:00,
2013-05-26 19:43:00,68.0,45.0,30.20,NNE,16,1.0,4.0,44,0.00,,,0.01,,2013-05-26 23:43:00,
2013-05-26 19:52:00,68.0,45.0,30.20,North,0,0.0,4.0,43,0.00,,,0.01,,2013-05-26 23:52:00,
2013-05-26 20:02:00,67.0,46.0,30.20,NNE,20,1.0,2.0,47,0.00,,,0.01,,2013-05-27 00:02:00,
2013-05-26 20:11:00,67.0,46.0,30.20,NNE,20,1.0,2.0,47,0.00,,,0.01,,2013-05-27 00:11:00,
2013-05-26 20:22:00,66.0,46.0,30.20,NNE,20,0.0,1.0,49,0.00,,,0.01,,2013-05-27 00:22:00,
2013-05-26 20:32:00,64.0,47.0,30.21,NNE,20,0.0,1.0,53,0.00,,,0.01,,2013-05-27 00:32:00,
2013-05-26 20:42:00,63.0,47.0,30.21,NNE,21,0.0,2.0,56,0.00,,,0.01,,2013-05-27 00:42:00,
2013-05-26 20:52:00,63.0,47.0,30.21,NNE,21,0.0,2.0,56,0.00,,,0.01,,2013-05-27 00:52:00,
2013-05-26 21:01:00,62.0,47.0,30.20,ENE,65,0.0,2.0,57,0.00,,,0.01,,2013-05-27 01:01:00,
2013-05-26 21:11:00,62.0,47.0,30.20,ENE,65,0.0,2.0,57,0.00,,,0.01,,2013-05-27 01:11:00,
2013-05-26 21:22:00,62.0,47.0,30.21,East,95,0.0,5.0,58,0.00,,,0.01,,2013-05-27 01:22:00,
2013-05-26 21:32:00,61.0,47.0,30.21,East,95,0.0,0.0,60,0.00,,,0.01,,2013-05-27 01:32:00,
2013-05-26 21:42:00,60.0,47.0,30.22,East,95,0.0,1.0,63,0.00,,,0.01,,2013-05-27 01:42:00,
2013-05-26 21:52:00,60.0,47.0,30.22,East,95,0.0,1.0,63,0.00,,,0.01,,2013-05-27 01:52:00,
2013-05-26 22:02:00,59.0,48.0,30.22,East,90,0.0,1.0,67,0.00,,,0.01,,2013-05-27 02:02:00,
2013-05-26 22:11:00,59.0,48.0,30.22,East,90,0.0,1.0,67,0.00,,,0.01,,2013-05-27 02:11:00,
2013-05-26 22:22:00,58.0,47.0,30.22,East,89,0.0,2.0,68,0.00,,,0.01,,2013-05-27 02:22:00,
2013-05-26 22:32:00,58.0,49.0,30.22,East,89,0.0,1.0,71,0.00,,,0.01,,2013-05-27 02:32:00,
2013-05-26 22:42:00,58.0,49.0,30.22,East,89,0.0,1.0,71,0.00,,,0.01,,2013-05-27 02:42:00,
2013-05-26 22:52:00,58.0,48.0,30.23,East,89,0.0,0.0,70,0.00,,,0.01,,2013-05-27 02:52:00,
2013-05-26 23:02:00,57.0,48.0,30.23,East,89,0.0,1.0,73,0.00,,,0.01,,2013-05-27 03:02:00,
2013-05-26 23:11:00,57.0,48.0,30.23,East,89,0.0,1.0,73,0.00,,,0.01,,2013-05-27 03:11:00,
2013-05-26 23:21:00,56.0,48.0,30.23,East,89,0.0,0.0,74,0.00,,,0.01,,2013-05-27 03:21:00,
2013-05-26 23:33:00,55.0,48.0,30.23,East,90,0.0,0.0,76,0.00,,,0.01,,2013-05-27 03:33:00,
2013-05-26 23:43:00,55.0,48.0,30.23,East,90,0.0,0.0,76,0.00,,,0.01,,2013-05-27 03:43:00,
2013-05-26 23:53:00,55.0,48.0,30.23,East,89,0.0,0.0,77,0.00,,,0.01,,2013-05-27 03:53:00,